Capo Mele, Italy

4:49 PM CET on November 17, 2019 (GMT +0100)
Capo Mele

Weather History for LIMU - October, 2019

Change the Weather History Date:

Monday, October 21, 2019

  Actual Average Record
Temperature  
Mean Temperature 66 °F -  
Max Temperature 75 °F 60 °F 76 °F (2012)
Min Temperature 56 °F 51 °F 48 °F (1999)
Growing Degree Days 16 (Base 50)    
Moisture  
Dew Point 62 °F    
Average Humidity 84    
Maximum Humidity 100    
Minimum Humidity 58    
Precipitation  
Precipitation 0.00 in 0.10 in - ()
Sea Level Pressure  
Sea Level Pressure 30.08 in    
Wind  
Wind Speed 9 mph ()    
Max Wind Speed 17 mph    
Max Gust Speed -    
Visibility 7.2 miles    
Events Rain , Thunderstorm    
Averages and records for this station are not official NWS values.
T = Trace of Precipitation, MM = Missing Value Source: Averaged Metar Reports

Daily Weather History Graph

Daily Weather History Graph

Search for Another Location

Airport or City:

Astronomy

Oct. 21, 2019 Rise Set
Actual Time 7:48 AM CEST 6:34 PM CEST
Civil Twilight 7:19 AM CEST 7:03 PM CEST
Nautical Twilight 6:45 AM CEST 7:37 PM CEST
Astronomical Twilight 6:12 AM CEST 8:10 PM CEST
Moon No Moon Rise 3:01 PM CEST (10/21)
Length of Visible Light 11h 44m
Length of Day
10h 45m
Waning Gibbous, 51% of the Moon is Illuminated
Oct 21
Waning Gibbous
Oct 21
Last Quarter
Oct 28
New
Nov 4
First Quarter
Nov 12
Full

Hourly Weather History & Observations

Time (CEST) Temp. Dew Point Humidity Pressure Visibility Wind Dir Wind Speed Gust Speed Precip Events Conditions
12:00 AM 66 °F 61 °F 80% 30.03 in 6 mi West 6.9 mph - - Rain Light Rain
12:55 AM 66.2 °F 59.0 °F 78% 30.01 in 6.2 mi West 9.2 mph - N/A Rain Light Rain
1:00 AM 65 °F 60 °F 78% 30.01 in 6 mi West 9.2 mph - - Rain Light Rain
2:00 AM 65 °F 62 °F 86% 30.03 in 6 mi NE 11.5 mph - - Rain Light Rain
2:55 AM 64.4 °F 62.6 °F 94% 30.04 in 6.2 mi NNE 11.5 mph - N/A Rain Light Rain
3:00 AM 64 °F 62 °F 91% 30.03 in 0 mi NNE 11.5 mph - - Rain Light Rain
3:55 AM 64.4 °F 62.6 °F 94% 29.98 in 3.1 mi North 13.8 mph - N/A Rain , Thunderstorm Heavy Thunderstorms and Rain
4:00 AM 65 °F 62 °F 86% 29.98 in 2 mi North 13.8 mph - - Thunderstorm Light Thunderstorm
4:55 AM 59.0 °F 57.2 °F 94% 29.98 in 5.0 mi WNW 13.8 mph - N/A Rain , Thunderstorm Light Thunderstorms and Rain
5:00 AM 59 °F 57 °F 91% 30.00 in 2 mi WNW 13.8 mph - - Rain Light Rain
5:55 AM 64.4 °F 57.2 °F 77% 29.98 in 6.2 mi West 4.6 mph - N/A   Scattered Clouds
6:00 AM 64 °F 57 °F 71% 29.99 in 6 mi West 4.6 mph - - Thunderstorm Light Thunderstorm
7:00 AM 63 °F 58 °F 78% 30.03 in 6 mi North 3.5 mph - -   Partly Cloudy
7:55 AM 62.6 °F 60.8 °F 94% 30.04 in 6.2 mi NNE 17.3 mph - N/A   Scattered Clouds
8:00 AM 62 °F 61 °F 96% 30.04 in 6 mi NNE 17.3 mph - -   Partly Cloudy
9:00 AM 63 °F 62 °F 95% 30.06 in 6 mi NNE 13.8 mph - -   Partly Cloudy
9:55 AM 64.4 °F 60.8 °F 88% 30.09 in 6.2 mi North 9.2 mph - N/A   Scattered Clouds
10:00 AM 64 °F 61 °F 87% 30.10 in 6 mi North 9.2 mph - -   Mostly Cloudy
10:55 AM 66.2 °F 62.6 °F 88% 30.12 in 6.2 mi North 6.9 mph - N/A   Scattered Clouds
11:00 AM 66 °F 62 °F 84% 30.12 in 6 mi North 6.9 mph - -   Overcast
12:00 PM 68 °F 61 °F 71% 30.14 in 12 mi North 4.6 mph - -   Mostly Cloudy
1:00 PM 68 °F 59 °F 64% 30.14 in 12 mi WNW 2.3 mph - -   Partly Cloudy
2:00 PM 72 °F 63 °F 66% 30.12 in 12 mi North 3.5 mph - -   Partly Cloudy
2:55 PM 75.2 °F 62.6 °F 65% 30.12 in 6.2 mi NNE 4.6 mph - N/A   Scattered Clouds
3:00 PM 75 °F 63 °F 58% 30.11 in 12 mi NNE 4.6 mph - -   Partly Cloudy
3:55 PM 69.8 °F 62.6 °F 78% 30.12 in 6.2 mi NE 11.5 mph - N/A   Scattered Clouds
4:00 PM 70 °F 62 °F 69% 30.12 in 12 mi NE 11.5 mph - -   Partly Cloudy
4:55 PM 68.0 °F 66.2 °F 94% 30.12 in 6.2 mi NNE 8.1 mph - N/A   Scattered Clouds
5:55 PM 68.0 °F 66.2 °F 94% 30.12 in 6.2 mi NNE 9.2 mph - N/A   Partly Cloudy
6:00 PM 68 °F 66 °F 93% 30.12 in 12 mi NNE 9.2 mph - -   Partly Cloudy
6:55 PM 66.2 °F 64.4 °F 94% 30.12 in 6.2 mi NNE 11.5 mph - N/A   Scattered Clouds
7:00 PM 66 °F 64 °F 93% 30.12 in 12 mi NNE 11.5 mph - -   Partly Cloudy
7:55 PM 66.2 °F 66.2 °F 100% 30.12 in 6.2 mi NNE 10.4 mph - N/A   Scattered Clouds
9:00 PM 66 °F 63 °F 86% 30.14 in 12 mi North 10.4 mph - -   Partly Cloudy
9:55 PM 66.2 °F 62.6 °F 88% 30.15 in 6.2 mi NNE 10.4 mph - N/A   Partly Cloudy
10:00 PM 66 °F 63 °F 85% 30.14 in 12 mi NNE 10.4 mph - -   Scattered Clouds
11:00 PM 67 °F 63 °F 83% 30.14 in 12 mi NNE 11.5 mph - -   Scattered Clouds
11:55 PM 66.2 °F 62.6 °F 88% 30.12 in 6.2 mi North 10.4 mph - N/A   Partly Cloudy